Weather History for Meacham, OR

Change the Weather History Date:

Monday, January 6, 2014

  Actual Average Record
Temperature  
Mean Temperature 29 °F -  
Max Temperature 39 °F 34 °F 48 °F (1999)
Min Temperature 19 °F 20 °F 3 °F (2000)
Degree Days  
Heating Degree Days 36    
Moisture  
Dew Point 12 °F    
Average Humidity 49    
Maximum Humidity 78    
Minimum Humidity 33    
Precipitation  
Precipitation 0.00 in - - ()
Sea Level Pressure  
Sea Level Pressure 30.33 in    
Wind  
Wind Speed 0 mph (North)    
Max Wind Speed 4 mph    
Max Gust Speed -    
Visibility 10 miles    
Events      
Averages and records for this station are not official NWS values.
T = Trace of Precipitation, MM = Missing Value Source: NWS Daily Summary

Daily Weather History Graph

Daily Weather History Graph

Search for Another Location

Airport:

Trip Planner

Search our weather history database for the weather conditions in past years. The results will help you decide how hot, cold, wet, or windy it might be!

Date:

Astronomy

Jan. 06, 2014 Rise Set
Actual Time 7:33 AM PST 4:26 PM PST
Civil Twilight 6:59 AM PST 4:59 PM PST
Nautical Twilight 6:22 AM PST 5:37 PM PST
Astronomical Twilight 5:46 AM PST 6:12 PM PST
Moon 10:32 AM PST (1/6) 11:25 PM PST (1/6)
Length of Visible Light 10h 00m
Length of Day
8h 52m
Waxing Crescent, 36% of the Moon is Illuminated
Jan 6
Waxing Crescent
Jan 7
First Quarter
Jan 15
Full
Jan 23
Last Quarter
Jan 30
New

Hourly Weather History & Observations

Time (PST) Temp. Windchill Dew Point Humidity Pressure Visibility Wind Dir Wind Speed Gust Speed Precip Events Conditions
12:56 AM 19.9 °F - 14.0 °F 78% 30.47 in 10.0 mi Calm Calm - N/A   Clear
1:56 AM 21.9 °F - 14.0 °F 72% 30.44 in 10.0 mi Calm Calm - N/A   Clear
2:56 AM 19.9 °F - 12.9 °F 74% 30.46 in 10.0 mi Calm Calm - N/A   Clear
3:56 AM 19.0 °F - 12.0 °F 74% 30.45 in 10.0 mi Calm Calm - N/A   Clear
4:56 AM 25.0 °F - 12.0 °F 58% 30.45 in 10.0 mi Calm Calm - N/A   Clear
5:56 AM 27.0 °F - 10.9 °F 51% 30.42 in 10.0 mi Calm Calm - N/A   Clear
6:56 AM 25.0 °F - 10.9 °F 55% 30.43 in 10.0 mi Calm Calm - N/A   Clear
7:56 AM 25.0 °F - 10.0 °F 53% 30.44 in 10.0 mi Calm Calm - N/A   Clear
8:56 AM 28.9 °F - 10.9 °F 47% 30.43 in 10.0 mi Calm Calm - N/A   Clear
9:56 AM 32.0 °F 28.7 °F 12.0 °F 44% 30.40 in 10.0 mi Variable 3.5 mph - N/A   Clear
10:56 AM 36.0 °F 33.3 °F 10.9 °F 36% 30.37 in 10.0 mi Variable 3.5 mph - N/A   Clear
11:56 AM 39.0 °F - 12.0 °F 33% 30.32 in 10.0 mi Calm Calm - N/A   Clear
12:56 PM 39.0 °F 36.8 °F 12.0 °F 33% 30.30 in 10.0 mi Variable 3.5 mph - N/A   Clear
1:56 PM 39.9 °F - 14.0 °F 35% 30.27 in 10.0 mi Calm Calm - N/A   Clear
2:56 PM 39.0 °F - 14.0 °F 36% 30.27 in 10.0 mi Calm Calm - N/A   Clear
3:56 PM 36.0 °F - 14.0 °F 41% 30.28 in 10.0 mi Calm Calm - N/A   Clear
4:56 PM 34.0 °F - 14.0 °F 44% 30.26 in 10.0 mi Calm Calm - N/A   Clear
5:56 PM 33.1 °F - 14.0 °F 46% 30.25 in 10.0 mi Calm Calm - N/A   Clear
6:56 PM 33.1 °F - 12.0 °F 42% 30.25 in 10.0 mi Calm Calm - N/A   Clear
7:56 PM 33.1 °F - 12.9 °F 43% 30.23 in 10.0 mi Calm Calm - N/A   Clear
8:56 PM 33.1 °F - 10.9 °F 40% 30.21 in 10.0 mi Calm Calm - N/A   Clear
9:56 PM 33.1 °F - 12.0 °F 42% 30.19 in 10.0 mi Calm Calm - N/A   Clear
10:56 PM 34.0 °F - 12.9 °F 42% 30.18 in 10.0 mi Calm Calm - N/A   Partly Cloudy
11:56 PM 33.1 °F - 14.0 °F 46% 30.16 in 10.0 mi Calm Calm - N/A   Overcast